Regional Weather Roundup
Issued by NWS

Home | Current Version | Previous Version | Graphics & Text | Print | Product List | Glossary On
Versions: 1 2 3 4 5 6 7 8 9 10 11 12 13 14 15 16 17 18 19 20 21 22 23 24 25 26 27 28 29 30 31 32 33 34 35 36 37 38 39 40 41 42 43 44 45 46 47 48 49 50
000
ASUS43 KTOP 211059
RWRKS

WEATHER ROUNDUP FOR KANSAS
NATIONAL WEATHER SERVICE GOODLAND KS
600 AM CDT THU SEP 21 2017

NOTE:  "FAIR" INDICATES FEW OR NO CLOUDS BELOW 12,000 FEET WITH NO
SIGNIFICANT WEATHER AND/OR OBSTRUCTIONS TO VISIBILITY.

KSZ001>006-013>018-027>032-041>047-211200-
NORTHWEST KANSAS

CITY           SKY/WX    TMP DP  RH WIND       PRES   REMARKS
GOODLAND       CLEAR     52  43  71 S14       29.79F
HAYS           CLEAR     53  50  89 CALM      29.81S
HILL CITY      CLEAR     48  44  86 CALM      29.81F
RUSSELL        CLEAR     61  56  83 S10       29.79S
$$

KSZ061>065-074>080-084>089-211200-
SOUTHWEST KANSAS

CITY           SKY/WX    TMP DP  RH WIND       PRES   REMARKS
DODGE CITY     CLEAR     56  47  71 S7        29.82F
ELKHART          N/A     58  46  64 SW7         N/A
GARDEN CITY    CLEAR     53  44  71 SW7       29.81F
GREAT BEND     CLEAR     57  54  89 S5        29.81
LIBERAL        CLEAR     53  47  79 W7        29.83S
$$

KSZ066>073-081>083-090>101-211200-
SOUTHEAST KANSAS

CITY           SKY/WX    TMP DP  RH WIND       PRES   REMARKS
CHANUTE        CLEAR     75  70  84 SE9       29.89R
COFFEYVILLE    CLEAR     74  70  87 SE10      29.88S
HUTCHINSON     CLEAR     73  70  90 SE9       29.83R
MEDICINE LODGE   N/A     71  67  87 E6        29.82S
NEWTON         CLEAR     72  70  93 SE10      29.85S
WICHITA INTL   PTCLDY    74  72  93 SE8       29.83S
WICHITA JABRA  CLEAR     73  72  96 S10       29.84S
WINFIELD       CLOUDY    74  72  93 SE7       29.85F
$$

KSZ007>012-019>026-033>040-048>060-102>105-211200-
NORTHEAST KANSAS

CITY           SKY/WX    TMP DP  RH WIND       PRES   REMARKS
CONCORDIA      CLEAR     63  63 100 SE7       29.80S
EMPORIA        CLEAR     74  70  87 S13       29.85F
LAWRENCE       CLEAR     75  72  90 SE5       29.86S
MANHATTAN      PTCLDY    77  72  84 S8        29.82S
OLATHE IND     CLEAR     74  71  91 S8        29.89S
OLATHE EXE     CLEAR     73  72  96 S7        29.89S
SALINA         CLEAR     75  70  84 S8        29.80S
TOPEKA BILLARD CLEAR     74  73  97 E5        29.85R
TOPEKA FORBES  CLEAR     75  72  90 S7        29.86R
$$



USA.gov is the U.S. government's official web portal to all federal, state and local government web resources and services.